Time,TemperatureF,DewpointF,PressureIn,WindDirection,WindDirectionDegrees,WindSpeedMPH,WindSpeedGustMPH,Humidity,HourlyPrecipIn,Conditions,Clouds,dailyrainin,SoftwareType,DateUTC
2013-01-03 00:00:00,29.8,4.2,30.12,South,175,1.0,5.0,33,0.00,CLR,,0.00,WeatherDisplay:10.37,2013-01-03 08:00:00,
2013-01-03 00:10:00,28.8,4.5,30.12,South,175,1.0,4.0,35,0.00,CLR,,0.00,WeatherDisplay:10.37,2013-01-03 08:10:00,
2013-01-03 00:20:00,28.5,4.3,30.12,South,175,3.0,5.0,35,0.00,CLR,,0.00,WeatherDisplay:10.37,2013-01-03 08:20:00,
2013-01-03 00:30:00,27.2,4.3,30.12,South,178,3.0,4.0,37,0.00,CLR,,0.00,WeatherDisplay:10.37,2013-01-03 08:30:00,
2013-01-03 00:40:00,27.9,5.5,30.12,South,178,5.0,5.0,38,0.00,CLR,,0.00,WeatherDisplay:10.37,2013-01-03 08:40:00,
2013-01-03 00:50:00,27.0,4.1,30.13,South,180,3.0,5.0,37,0.00,CLR,,0.00,WeatherDisplay:10.37,2013-01-03 08:50:00,
2013-01-03 01:00:00,27.5,5.2,30.13,South,180,3.0,5.0,38,0.00,CLR,,0.00,WeatherDisplay:10.37,2013-01-03 09:00:00,
2013-01-03 01:10:00,28.4,5.4,30.13,South,180,1.0,3.0,37,0.00,CLR,,0.00,WeatherDisplay:10.37,2013-01-03 09:10:00,
2013-01-03 01:20:00,28.7,5.6,30.12,South,180,1.0,3.0,37,0.00,CLR,,0.00,WeatherDisplay:10.37,2013-01-03 09:20:00,
2013-01-03 01:30:00,29.5,6.4,30.12,South,180,3.0,7.0,37,0.00,CLR,,0.00,WeatherDisplay:10.37,2013-01-03 09:30:00,
2013-01-03 01:40:00,30.4,6.0,30.12,South,180,3.0,9.0,35,0.00,CLR,,0.00,WeatherDisplay:10.37,2013-01-03 09:40:00,
2013-01-03 01:50:00,31.0,5.9,30.12,South,180,2.0,6.0,34,0.00,CLR,,0.00,WeatherDisplay:10.37,2013-01-03 09:50:00,
2013-01-03 02:00:00,30.2,5.1,30.12,South,180,5.0,7.0,34,0.00,CLR,,0.00,WeatherDisplay:10.37,2013-01-03 10:00:00,
2013-01-03 02:10:00,29.1,4.8,30.13,South,180,5.0,9.0,35,0.00,CLR,,0.00,WeatherDisplay:10.37,2013-01-03 10:10:00,
2013-01-03 02:20:00,28.8,5.2,30.12,South,181,5.0,9.0,36,0.00,CLR,,0.00,WeatherDisplay:10.37,2013-01-03 10:20:00,
2013-01-03 02:30:00,29.4,5.7,30.13,South,182,1.0,6.0,36,0.00,CLR,,0.00,WeatherDisplay:10.37,2013-01-03 10:30:00,
2013-01-03 02:40:00,30.0,6.2,30.12,South,182,3.0,6.0,36,0.00,CLR,,0.00,WeatherDisplay:10.37,2013-01-03 10:40:00,
2013-01-03 02:50:00,30.1,6.3,30.13,South,183,5.0,9.0,36,0.00,CLR,,0.00,WeatherDisplay:10.37,2013-01-03 10:50:00,
2013-01-03 03:00:00,30.1,5.7,30.12,South,183,3.0,7.0,35,0.00,CLR,,0.00,WeatherDisplay:10.37,2013-01-03 11:00:00,
2013-01-03 03:05:00,29.8,6.1,30.12,South,183,3.0,6.0,36,0.00,CLR,,0.00,WeatherDisplay:10.37,2013-01-03 11:05:00,
2013-01-03 03:10:00,29.5,5.8,30.12,South,183,3.0,6.0,36,0.00,CLR,,0.00,WeatherDisplay:10.37,2013-01-03 11:10:00,
2013-01-03 03:20:00,28.4,5.4,30.13,South,184,2.0,5.0,37,0.00,CLR,,0.00,WeatherDisplay:10.37,2013-01-03 11:20:00,
2013-01-03 03:30:00,26.3,5.8,30.14,South,184,1.0,3.0,41,0.00,CLR,,0.00,WeatherDisplay:10.37,2013-01-03 11:30:00,
2013-01-03 03:40:00,26.6,6.0,30.13,South,184,0.0,0.0,41,0.00,CLR,,0.00,WeatherDisplay:10.37,2013-01-03 11:40:00,
2013-01-03 03:50:00,26.1,5.6,30.14,South,184,0.0,2.0,41,0.00,CLR,,0.00,WeatherDisplay:10.37,2013-01-03 11:50:00,
2013-01-03 04:00:00,24.8,4.4,30.14,South,184,1.0,3.0,41,0.00,CLR,,0.00,WeatherDisplay:10.37,2013-01-03 12:00:00,
2013-01-03 04:05:00,23.4,3.6,30.15,South,188,5.0,6.0,42,0.00,CLR,,0.00,WeatherDisplay:10.37,2013-01-03 12:05:00,
2013-01-03 04:10:00,23.3,5.0,30.15,South,190,3.0,5.0,45,0.00,CLR,,0.00,WeatherDisplay:10.37,2013-01-03 12:10:00,
2013-01-03 04:20:00,24.3,5.5,30.15,South,191,0.0,2.0,44,0.00,CLR,,0.00,WeatherDisplay:10.37,2013-01-03 12:20:00,
2013-01-03 04:30:00,24.5,5.2,30.17,South,191,0.0,1.0,43,0.00,CLR,,0.00,WeatherDisplay:10.37,2013-01-03 12:30:00,
2013-01-03 04:40:00,24.1,4.8,30.18,South,191,0.0,0.0,43,0.00,CLR,,0.00,WeatherDisplay:10.37,2013-01-03 12:40:00,
2013-01-03 04:50:00,24.1,5.3,30.18,South,191,0.0,1.0,44,0.00,CLR,,0.00,WeatherDisplay:10.37,2013-01-03 12:50:00,
2013-01-03 05:00:00,23.5,5.3,30.18,South,191,1.0,4.0,45,0.00,CLR,,0.00,WeatherDisplay:10.37,2013-01-03 13:00:00,
2013-01-03 05:05:00,23.9,5.1,30.18,South,191,3.0,4.0,44,0.00,CLR,,0.00,WeatherDisplay:10.37,2013-01-03 13:05:00,
2013-01-03 05:10:00,23.7,5.0,30.18,South,191,3.0,5.0,44,0.00,CLR,,0.00,WeatherDisplay:10.37,2013-01-03 13:10:00,
2013-01-03 05:20:00,24.2,5.4,30.18,South,191,1.0,3.0,44,0.00,CLR,,0.00,WeatherDisplay:10.37,2013-01-03 13:20:00,
2013-01-03 05:30:00,23.9,5.6,30.20,South,191,0.0,0.0,45,0.00,CLR,,0.00,WeatherDisplay:10.37,2013-01-03 13:30:00,
2013-01-03 05:40:00,24.1,5.3,30.21,South,191,0.0,1.0,44,0.00,CLR,,0.00,WeatherDisplay:10.37,2013-01-03 13:40:00,
2013-01-03 05:50:00,23.2,5.0,30.21,South,191,3.0,4.0,45,0.00,CLR,,0.00,WeatherDisplay:10.37,2013-01-03 13:50:00,
2013-01-03 06:00:00,23.2,5.5,30.22,South,191,0.0,1.0,46,0.00,CLR,,0.00,WeatherDisplay:10.37,2013-01-03 14:00:00,
2013-01-03 06:10:00,23.6,4.8,30.21,South,191,3.0,4.0,44,0.00,CLR,,0.00,WeatherDisplay:10.37,2013-01-03 14:10:00,
2013-01-03 06:20:00,23.6,5.3,30.22,South,191,3.0,4.0,45,0.00,CLR,,0.00,WeatherDisplay:10.37,2013-01-03 14:20:00,
2013-01-03 06:30:00,24.6,6.3,30.24,South,191,2.0,6.0,45,0.00,CLR,,0.00,WeatherDisplay:10.37,2013-01-03 14:30:00,
2013-01-03 06:40:00,25.4,6.5,30.23,South,191,1.0,5.0,44,0.00,CLR,,0.00,WeatherDisplay:10.37,2013-01-03 14:40:00,
2013-01-03 06:50:00,25.6,6.2,30.24,South,191,3.0,6.0,43,0.00,CLR,,0.00,WeatherDisplay:10.37,2013-01-03 14:50:00,
2013-01-03 07:00:00,26.0,6.0,30.25,South,191,1.0,4.0,42,0.00,CLR,,0.00,WeatherDisplay:10.37,2013-01-03 15:00:00,
2013-01-03 07:05:00,25.7,5.7,30.25,South,191,1.0,2.0,42,0.00,CLR,,0.00,WeatherDisplay:10.37,2013-01-03 15:05:00,
2013-01-03 07:10:00,25.0,5.6,30.25,South,191,1.0,4.0,43,0.00,CLR,,0.00,WeatherDisplay:10.37,2013-01-03 15:10:00,
2013-01-03 07:20:00,24.4,5.6,30.26,South,191,1.0,2.0,44,0.00,CLR,,0.00,WeatherDisplay:10.37,2013-01-03 15:20:00,
2013-01-03 07:30:00,24.5,5.7,30.25,South,191,1.0,3.0,44,0.00,CLR,,0.00,WeatherDisplay:10.37,2013-01-03 15:30:00,
2013-01-03 07:40:00,25.4,7.0,30.26,South,191,2.0,3.0,45,0.00,CLR,,0.00,WeatherDisplay:10.37,2013-01-03 15:40:00,
2013-01-03 07:50:00,26.9,7.4,30.25,South,191,1.0,3.0,43,0.00,CLR,,0.00,WeatherDisplay:10.37,2013-01-03 15:50:00,
2013-01-03 08:00:00,28.2,7.5,30.26,South,191,0.0,3.0,41,0.00,CLR,,0.00,WeatherDisplay:10.37,2013-01-03 16:00:00,
2013-01-03 08:05:00,28.9,7.5,30.26,South,191,1.0,3.0,40,0.00,CLR,,0.00,WeatherDisplay:10.37,2013-01-03 16:05:00,
2013-01-03 08:10:00,29.7,7.7,30.26,South,191,0.0,4.0,39,0.00,CLR,,0.00,WeatherDisplay:10.37,2013-01-03 16:10:00,
2013-01-03 08:20:00,30.7,8.0,30.26,South,191,1.0,3.0,38,0.00,CLR,,0.00,WeatherDisplay:10.37,2013-01-03 16:20:00,
2013-01-03 08:30:00,32.2,8.2,30.27,South,191,1.0,4.0,36,0.00,CLR,,0.00,WeatherDisplay:10.37,2013-01-03 16:30:00,
2013-01-03 08:40:00,33.5,8.1,30.26,South,191,0.0,3.0,34,0.00,CLR,,0.00,WeatherDisplay:10.37,2013-01-03 16:40:00,
2013-01-03 08:50:00,34.7,8.5,30.26,South,191,0.0,0.0,33,0.00,CLR,,0.00,WeatherDisplay:10.37,2013-01-03 16:50:00,
2013-01-03 09:00:00,35.8,8.8,30.27,South,191,2.0,4.0,32,0.00,CLR,,0.00,WeatherDisplay:10.37,2013-01-03 17:00:00,
2013-01-03 09:05:00,35.9,8.9,30.27,South,191,2.0,5.0,32,0.00,CLR,,0.00,WeatherDisplay:10.37,2013-01-03 17:05:00,
2013-01-03 09:10:00,35.9,8.9,30.27,South,191,1.0,3.0,32,0.00,CLR,,0.00,WeatherDisplay:10.37,2013-01-03 17:10:00,
2013-01-03 09:20:00,36.3,7.8,30.28,South,191,1.0,3.0,30,0.00,CLR,,0.00,WeatherDisplay:10.37,2013-01-03 17:20:00,
2013-01-03 09:30:00,36.8,6.7,30.29,South,191,2.0,3.0,28,0.00,CLR,,0.00,WeatherDisplay:10.37,2013-01-03 17:30:00,
2013-01-03 09:40:00,38.2,7.9,30.28,South,191,0.0,2.0,28,0.00,CLR,,0.00,WeatherDisplay:10.37,2013-01-03 17:40:00,
2013-01-03 09:50:00,39.8,8.4,30.28,South,191,0.0,0.0,27,0.00,CLR,,0.00,WeatherDisplay:10.37,2013-01-03 17:50:00,
2013-01-03 10:00:00,41.1,7.9,30.28,South,191,0.0,0.0,25,0.00,CLR,,0.00,WeatherDisplay:10.37,2013-01-03 18:00:00,
2013-01-03 10:05:00,41.8,7.5,30.27,South,191,0.0,3.0,24,0.00,CLR,,0.00,WeatherDisplay:10.37,2013-01-03 18:05:00,
2013-01-03 10:10:00,42.4,8.1,30.27,South,191,0.0,0.0,24,0.00,CLR,,0.00,WeatherDisplay:10.37,2013-01-03 18:10:00,
2013-01-03 10:20:00,43.8,8.3,30.27,South,191,0.0,0.0,23,0.00,CLR,,0.00,WeatherDisplay:10.37,2013-01-03 18:20:00,
2013-01-03 10:30:00,44.6,9.0,30.27,South,191,0.0,0.0,23,0.00,CLR,,0.00,WeatherDisplay:10.37,2013-01-03 18:30:00,
2013-01-03 10:40:00,44.6,9.0,30.27,South,191,0.0,3.0,23,0.00,CLR,,0.00,WeatherDisplay:10.37,2013-01-03 18:40:00,
2013-01-03 10:50:00,44.9,9.3,30.26,South,191,0.0,0.0,23,0.00,CLR,,0.00,WeatherDisplay:10.37,2013-01-03 18:50:00,
2013-01-03 11:00:00,45.8,9.0,30.25,South,191,0.0,0.0,22,0.00,CLR,,0.00,WeatherDisplay:10.37,2013-01-03 19:00:00,
2013-01-03 11:05:00,46.5,9.6,30.25,South,191,0.0,0.0,22,0.00,CLR,,0.00,WeatherDisplay:10.37,2013-01-03 19:05:00,
2013-01-03 11:10:00,47.0,9.0,30.24,South,191,0.0,0.0,21,0.00,CLR,,0.00,WeatherDisplay:10.37,2013-01-03 19:10:00,
2013-01-03 11:55:00,50.9,8.8,30.22,South,188,2.0,4.0,18,0.00,CLR,,0.00,WeatherDisplay:10.37,2013-01-03 19:55:00,
2013-01-03 12:00:00,51.6,9.4,30.22,South,186,0.0,3.0,18,0.00,CLR,,0.00,WeatherDisplay:10.37,2013-01-03 20:00:00,
2013-01-03 12:05:00,51.7,9.5,30.21,South,186,0.0,4.0,18,0.00,CLR,,0.00,WeatherDisplay:10.37,2013-01-03 20:05:00,
2013-01-03 12:10:00,51.9,8.4,30.21,South,182,0.0,4.0,17,0.00,CLR,,0.00,WeatherDisplay:10.37,2013-01-03 20:10:00,
2013-01-03 12:20:00,52.0,8.5,30.21,South,175,0.0,3.0,17,0.00,CLR,,0.00,WeatherDisplay:10.37,2013-01-03 20:20:00,
2013-01-03 12:30:00,51.7,8.2,30.20,SSE,154,2.0,5.0,17,0.00,CLR,,0.00,WeatherDisplay:10.37,2013-01-03 20:30:00,
2013-01-03 12:40:00,51.7,8.2,30.20,SE,144,1.0,5.0,17,0.00,CLR,,0.00,WeatherDisplay:10.37,2013-01-03 20:40:00,
2013-01-03 12:50:00,52.0,8.4,30.19,ESE,123,2.0,5.0,17,0.00,CLR,,0.00,WeatherDisplay:10.37,2013-01-03 20:50:00,
2013-01-03 13:00:00,53.0,9.3,30.18,ESE,119,1.0,4.0,17,0.00,CLR,,0.00,WeatherDisplay:10.37,2013-01-03 21:00:00,
2013-01-03 13:10:00,52.8,9.1,30.18,East,100,2.0,6.0,17,0.00,CLR,,0.00,WeatherDisplay:10.37,2013-01-03 21:10:00,
2013-01-03 13:20:00,52.6,8.9,30.18,East,93,3.0,6.0,17,0.00,CLR,,0.00,WeatherDisplay:10.37,2013-01-03 21:20:00,
2013-01-03 13:30:00,53.2,8.1,30.18,East,92,2.0,5.0,16,0.00,CLR,,0.00,WeatherDisplay:10.37,2013-01-03 21:30:00,
2013-01-03 13:40:00,55.0,8.1,30.17,East,92,1.0,5.0,15,0.00,CLR,,0.00,WeatherDisplay:10.37,2013-01-03 21:40:00,
2013-01-03 13:45:00,54.7,7.9,30.17,East,91,0.0,2.0,15,0.00,CLR,,0.00,WeatherDisplay:10.37,2013-01-03 21:45:00,
2013-01-03 13:55:00,54.5,7.7,30.17,East,89,0.0,3.0,15,0.00,CLR,,0.00,WeatherDisplay:10.37,2013-01-03 21:55:00,
2013-01-03 14:00:00,54.2,7.5,30.17,East,89,1.0,4.0,15,0.00,CLR,,0.00,WeatherDisplay:10.37,2013-01-03 22:00:00,
2013-01-03 14:05:00,54.4,7.6,30.17,East,89,1.0,3.0,15,0.00,CLR,,0.00,WeatherDisplay:10.37,2013-01-03 22:05:00,
2013-01-03 14:10:00,54.2,7.4,30.17,East,89,0.0,4.0,15,0.00,CLR,,0.00,WeatherDisplay:10.37,2013-01-03 22:10:00,
2013-01-03 14:20:00,53.9,7.2,30.17,East,89,1.0,5.0,15,0.00,CLR,,0.00,WeatherDisplay:10.37,2013-01-03 22:20:00,
2013-01-03 14:30:00,54.5,7.7,30.17,East,89,0.0,3.0,15,0.00,CLR,,0.00,WeatherDisplay:10.37,2013-01-03 22:30:00,
2013-01-03 14:40:00,54.4,7.6,30.17,East,89,2.0,4.0,15,0.00,CLR,,0.00,WeatherDisplay:10.37,2013-01-03 22:40:00,
2013-01-03 14:50:00,54.4,7.6,30.17,East,89,0.0,4.0,15,0.00,CLR,,0.00,WeatherDisplay:10.37,2013-01-03 22:50:00,
2013-01-03 15:00:00,54.2,7.5,30.17,East,89,2.0,5.0,15,0.00,CLR,,0.00,WeatherDisplay:10.37,2013-01-03 23:00:00,
2013-01-03 15:05:00,54.1,7.4,30.17,East,89,0.0,3.0,15,0.00,CLR,,0.00,WeatherDisplay:10.37,2013-01-03 23:05:00,
2013-01-03 15:10:00,54.4,7.6,30.17,East,89,1.0,3.0,15,0.00,CLR,,0.00,WeatherDisplay:10.37,2013-01-03 23:10:00,
2013-01-03 15:20:00,54.1,7.4,30.17,East,89,0.0,3.0,15,0.00,CLR,,0.00,WeatherDisplay:10.37,2013-01-03 23:20:00,
2013-01-03 15:30:00,53.8,7.1,30.18,East,89,2.0,5.0,15,0.00,CLR,,0.00,WeatherDisplay:10.37,2013-01-03 23:30:00,
2013-01-03 15:40:00,53.5,6.9,30.18,East,89,3.0,5.0,15,0.00,CLR,,0.00,WeatherDisplay:10.37,2013-01-03 23:40:00,
2013-01-03 15:50:00,53.8,7.1,30.18,East,89,0.0,1.0,15,0.00,CLR,,0.00,WeatherDisplay:10.37,2013-01-03 23:50:00,
2013-01-03 16:00:00,53.6,7.0,30.18,East,89,1.0,3.0,15,0.00,CLR,,0.00,WeatherDisplay:10.37,2013-01-04 00:00:00,
2013-01-03 16:10:00,52.8,4.8,30.18,East,89,3.0,5.0,14,0.00,CLR,,0.00,WeatherDisplay:10.37,2013-01-04 00:10:00,
2013-01-03 16:20:00,52.2,4.3,30.18,East,89,2.0,3.0,14,0.00,CLR,,0.00,WeatherDisplay:10.37,2013-01-04 00:20:00,
2013-01-03 16:30:00,51.8,4.0,30.19,East,89,2.0,4.0,14,0.00,CLR,,0.00,WeatherDisplay:10.37,2013-01-04 00:30:00,
2013-01-03 16:40:00,51.0,4.9,30.19,East,89,0.0,2.0,15,0.00,CLR,,0.00,WeatherDisplay:10.37,2013-01-04 00:40:00,
2013-01-03 16:50:00,50.1,4.1,30.19,East,89,0.0,1.0,15,0.00,CLR,,0.00,WeatherDisplay:10.37,2013-01-04 00:50:00,
2013-01-03 17:00:00,49.0,3.3,30.20,East,89,0.0,1.0,15,0.00,CLR,,0.00,WeatherDisplay:10.37,2013-01-04 01:00:00,
2013-01-03 17:05:00,48.5,4.3,30.20,East,89,0.0,0.0,16,0.00,CLR,,0.00,WeatherDisplay:10.37,2013-01-04 01:05:00,
2013-01-03 17:10:00,48.0,3.8,30.20,East,89,0.0,0.0,16,0.00,CLR,,0.00,WeatherDisplay:10.37,2013-01-04 01:10:00,
2013-01-03 17:20:00,46.8,2.9,30.21,East,89,0.0,0.0,16,0.00,CLR,,0.00,WeatherDisplay:10.37,2013-01-04 01:20:00,
2013-01-03 17:30:00,46.0,3.6,30.22,East,89,0.0,0.0,17,0.00,CLR,,0.00,WeatherDisplay:10.37,2013-01-04 01:30:00,
2013-01-03 17:40:00,44.4,3.4,30.22,East,89,0.0,0.0,18,0.00,CLR,,0.00,WeatherDisplay:10.37,2013-01-04 01:40:00,
2013-01-03 17:50:00,41.5,3.4,30.23,East,89,0.0,0.0,20,0.00,CLR,,0.00,WeatherDisplay:10.37,2013-01-04 01:50:00,
2013-01-03 18:00:00,38.5,1.9,30.24,East,91,2.0,5.0,21,0.00,CLR,,0.00,WeatherDisplay:10.37,2013-01-04 02:00:00,
2013-01-03 18:05:00,38.6,2.0,30.25,East,93,1.0,5.0,21,0.00,CLR,,0.00,WeatherDisplay:10.37,2013-01-04 02:05:00,
2013-01-03 18:10:00,38.2,1.7,30.25,East,94,1.0,2.0,21,0.00,CLR,,0.00,WeatherDisplay:10.37,2013-01-04 02:10:00,
2013-01-03 18:20:00,37.2,1.8,30.25,East,94,1.0,2.0,22,0.00,CLR,,0.00,WeatherDisplay:10.37,2013-01-04 02:20:00,
2013-01-03 18:30:00,36.5,2.1,30.25,East,94,2.0,3.0,23,0.00,CLR,,0.00,WeatherDisplay:10.37,2013-01-04 02:30:00,
2013-01-03 18:40:00,36.8,3.3,30.25,East,94,1.0,4.0,24,0.00,CLR,,0.00,WeatherDisplay:10.37,2013-01-04 02:40:00,
2013-01-03 18:50:00,35.7,2.4,30.26,East,94,0.0,2.0,24,0.00,CLR,,0.00,WeatherDisplay:10.37,2013-01-04 02:50:00,
2013-01-03 19:00:00,34.6,1.4,30.26,East,94,0.0,2.0,24,0.00,CLR,,0.00,WeatherDisplay:10.37,2013-01-04 03:00:00,
2013-01-03 19:05:00,34.3,1.2,30.27,East,95,0.0,1.0,24,0.00,CLR,,0.00,WeatherDisplay:10.37,2013-01-04 03:05:00,
2013-01-03 19:10:00,34.1,1.0,30.27,East,95,1.0,2.0,24,0.00,CLR,,0.00,WeatherDisplay:10.37,2013-01-04 03:10:00,
2013-01-03 19:20:00,34.3,1.2,30.27,East,94,0.0,2.0,24,0.00,CLR,,0.00,WeatherDisplay:10.37,2013-01-04 03:20:00,
2013-01-03 19:30:00,34.1,1.0,30.25,East,94,0.0,0.0,24,0.00,CLR,,0.00,WeatherDisplay:10.37,2013-01-04 03:30:00,
2013-01-03 19:40:00,33.4,0.4,30.25,East,94,0.0,0.0,24,0.00,CLR,,0.00,WeatherDisplay:10.37,2013-01-04 03:40:00,
2013-01-03 19:50:00,33.2,1.1,30.25,East,95,3.0,6.0,25,0.00,CLR,,0.00,WeatherDisplay:10.37,2013-01-04 03:50:00,
2013-01-03 20:00:00,33.5,3.0,30.25,East,97,3.0,5.0,27,0.00,CLR,,0.00,WeatherDisplay:10.37,2013-01-04 04:00:00,
2013-01-03 20:05:00,33.5,3.0,30.26,East,101,5.0,7.0,27,0.00,CLR,,0.00,WeatherDisplay:10.37,2013-01-04 04:05:00,
2013-01-03 20:10:00,34.0,3.5,30.26,ESE,115,5.0,10.0,27,0.00,CLR,,0.00,WeatherDisplay:10.37,2013-01-04 04:10:00,
2013-01-03 20:20:00,33.7,3.2,30.26,SE,136,5.0,7.0,27,0.00,CLR,,0.00,WeatherDisplay:10.37,2013-01-04 04:20:00,
2013-01-03 20:30:00,33.7,4.0,30.25,SE,139,3.0,9.0,28,0.00,CLR,,0.00,WeatherDisplay:10.37,2013-01-04 04:30:00,
2013-01-03 20:40:00,33.8,3.3,30.25,SE,141,3.0,7.0,27,0.00,CLR,,0.00,WeatherDisplay:10.37,2013-01-04 04:40:00,
2013-01-03 20:50:00,33.4,3.0,30.25,SE,142,2.0,7.0,27,0.00,CLR,,0.00,WeatherDisplay:10.37,2013-01-04 04:50:00,
2013-01-03 21:05:00,33.4,3.7,30.25,SE,142,3.0,7.0,28,0.00,CLR,,0.00,WeatherDisplay:10.37,2013-01-04 05:05:00,
2013-01-03 21:10:00,33.4,3.7,30.25,SE,143,3.0,7.0,28,0.00,CLR,,0.00,WeatherDisplay:10.37,2013-01-04 05:10:00,
2013-01-03 21:15:00,33.5,3.8,30.25,SE,144,3.0,5.0,28,0.00,CLR,,0.00,WeatherDisplay:10.37,2013-01-04 05:15:00,
2013-01-03 21:20:00,33.8,4.1,30.25,SE,144,2.0,5.0,28,0.00,CLR,,0.00,WeatherDisplay:10.37,2013-01-04 05:20:00,
2013-01-03 21:30:00,33.7,4.0,30.23,SE,144,2.0,5.0,28,0.00,CLR,,0.00,WeatherDisplay:10.37,2013-01-04 05:30:00,
2013-01-03 21:35:00,33.5,4.6,30.23,SE,144,2.0,4.0,29,0.00,CLR,,0.00,WeatherDisplay:10.37,2013-01-04 05:35:00,
2013-01-03 21:40:00,33.2,5.1,30.24,SE,144,2.0,5.0,30,0.00,CLR,,0.00,WeatherDisplay:10.37,2013-01-04 05:40:00,
2013-01-03 21:50:00,31.9,4.6,30.24,SE,144,0.0,3.0,31,0.00,CLR,,0.00,WeatherDisplay:10.37,2013-01-04 05:50:00,
2013-01-03 22:00:00,31.6,5.1,30.24,SE,144,3.0,7.0,32,0.00,CLR,,0.00,WeatherDisplay:10.37,2013-01-04 06:00:00,
2013-01-03 22:05:00,31.5,5.0,30.24,SE,144,3.0,7.0,32,0.00,CLR,,0.00,WeatherDisplay:10.37,2013-01-04 06:05:00,
2013-01-03 22:10:00,31.5,5.0,30.24,SE,145,2.0,5.0,32,0.00,CLR,,0.00,WeatherDisplay:10.37,2013-01-04 06:10:00,
2013-01-03 22:20:00,30.9,5.1,30.25,SE,145,2.0,4.0,33,0.00,CLR,,0.00,WeatherDisplay:10.37,2013-01-04 06:20:00,
2013-01-03 22:30:00,30.3,4.6,30.24,SE,145,2.0,5.0,33,0.00,CLR,,0.00,WeatherDisplay:10.37,2013-01-04 06:30:00,
2013-01-03 22:40:00,29.7,4.1,30.24,SE,146,2.0,4.0,33,0.00,CLR,,0.00,WeatherDisplay:10.37,2013-01-04 06:40:00,
2013-01-03 22:50:00,29.5,4.5,30.24,SE,146,1.0,4.0,34,0.00,CLR,,0.00,WeatherDisplay:10.37,2013-01-04 06:50:00,
2013-01-03 23:00:00,29.4,4.4,30.24,SE,146,1.0,3.0,34,0.00,CLR,,0.00,WeatherDisplay:10.37,2013-01-04 07:00:00,
2013-01-03 23:10:00,29.0,4.7,30.24,SE,146,0.0,2.0,35,0.00,CLR,,0.00,WeatherDisplay:10.37,2013-01-04 07:10:00,
2013-01-03 23:20:00,28.5,4.9,30.24,SE,146,1.0,3.0,36,0.00,CLR,,0.00,WeatherDisplay:10.37,2013-01-04 07:20:00,
2013-01-03 23:30:00,28.5,4.9,30.23,SE,146,0.0,2.0,36,0.00,CLR,,0.00,WeatherDisplay:10.37,2013-01-04 07:30:00,
2013-01-03 23:40:00,28.4,5.4,30.23,SE,146,0.0,0.0,37,0.00,CLR,,0.00,WeatherDisplay:10.37,2013-01-04 07:40:00,
2013-01-03 23:50:00,28.4,5.4,30.22,SE,146,2.0,4.0,37,0.00,CLR,,0.00,WeatherDisplay:10.37,2013-01-04 07:50:00,